Time,TemperatureF,DewpointF,PressureIn,WindDirection,WindDirectionDegrees,WindSpeedMPH,WindSpeedGustMPH,Humidity,HourlyPrecipIn,Conditions,Clouds,dailyrainin,SoftwareType,DateUTC
2013-05-11 00:02:00,48.4,27.4,29.56,SE,135,4.9,4.9,44,0.00,CLR,SCT,0.00,WeatherDisplay:10.37,2013-05-11 08:02:00,
2013-05-11 00:07:00,48.2,27.8,29.56,SE,135,4.9,4.9,45,0.00,CLR,SCT,0.00,WeatherDisplay:10.37,2013-05-11 08:07:00,
2013-05-11 00:12:00,48.0,28.2,29.56,SE,135,4.6,4.6,46,0.00,CLR,SCT,0.00,WeatherDisplay:10.37,2013-05-11 08:12:00,
2013-05-11 00:17:00,48.0,28.2,29.56,SE,135,4.6,4.6,46,0.00,CLR,SCT,0.00,WeatherDisplay:10.37,2013-05-11 08:17:00,
2013-05-11 00:22:00,47.8,28.6,29.56,SE,135,3.5,3.5,47,0.00,CLR,SCT,0.00,WeatherDisplay:10.37,2013-05-11 08:22:00,
2013-05-11 00:27:00,47.7,28.4,29.56,SE,135,3.5,3.5,47,0.00,CLR,SCT,0.00,WeatherDisplay:10.37,2013-05-11 08:27:00,
2013-05-11 00:32:00,48.0,28.2,29.56,SSE,158,5.8,5.8,46,0.00,CLR,SCT,0.00,WeatherDisplay:10.37,2013-05-11 08:32:00,
2013-05-11 00:37:00,48.2,27.8,29.56,SSE,158,4.6,4.6,45,0.00,CLR,SCT,0.00,WeatherDisplay:10.37,2013-05-11 08:37:00,
2013-05-11 00:42:00,48.2,27.8,29.56,SSE,158,5.8,5.8,45,0.00,CLR,SCT,0.00,WeatherDisplay:10.37,2013-05-11 08:42:00,
2013-05-11 00:47:00,48.4,28.0,29.56,SE,135,5.8,5.8,45,0.00,CLR,SCT,0.00,WeatherDisplay:10.37,2013-05-11 08:47:00,
2013-05-11 00:52:00,48.4,28.0,29.56,SE,135,3.6,3.6,45,0.00,CLR,SCT,0.00,WeatherDisplay:10.37,2013-05-11 08:52:00,
2013-05-11 00:57:00,48.2,27.8,29.56,SE,135,2.3,2.3,45,0.00,CLR,SCT,0.00,WeatherDisplay:10.37,2013-05-11 08:57:00,
2013-05-11 01:02:00,47.7,28.4,29.56,SE,135,0.0,0.0,47,0.00,CLR,SCT,0.00,WeatherDisplay:10.37,2013-05-11 09:02:00,
2013-05-11 01:07:00,47.3,28.1,29.56,SE,135,0.0,0.0,47,0.00,CLR,SCT,0.00,WeatherDisplay:10.37,2013-05-11 09:07:00,
2013-05-11 01:12:00,47.1,28.4,29.56,South,180,2.6,0.0,48,0.00,CLR,SCT,0.00,WeatherDisplay:10.37,2013-05-11 09:12:00,
2013-05-11 01:17:00,46.8,28.6,29.56,South,180,2.3,0.0,49,0.00,CLR,SCT,0.00,WeatherDisplay:10.37,2013-05-11 09:17:00,
2013-05-11 01:22:00,46.4,28.3,29.56,NNW,338,2.3,2.3,49,0.00,CLR,SCT,0.00,WeatherDisplay:10.37,2013-05-11 09:22:00,
2013-05-11 01:27:00,46.0,28.4,29.56,NW,315,0.0,0.0,50,0.00,CLR,SCT,0.00,WeatherDisplay:10.37,2013-05-11 09:27:00,
2013-05-11 01:32:00,45.3,28.2,29.56,NW,315,3.6,3.6,51,0.00,CLR,SCT,0.00,WeatherDisplay:10.37,2013-05-11 09:32:00,
2013-05-11 01:37:00,44.8,28.7,29.56,NW,315,3.5,3.5,53,0.00,CLR,SCT,0.00,WeatherDisplay:10.37,2013-05-11 09:37:00,
2013-05-11 01:42:00,44.6,29.0,29.56,NW,315,2.3,0.0,54,0.00,CLR,SCT,0.00,WeatherDisplay:10.37,2013-05-11 09:42:00,
2013-05-11 01:47:00,44.2,29.1,29.56,NW,315,0.0,0.0,55,0.00,CLR,SCT,0.00,WeatherDisplay:10.37,2013-05-11 09:47:00,
2013-05-11 01:52:00,44.1,28.9,29.56,NW,315,0.0,0.0,55,0.00,CLR,SCT,0.00,WeatherDisplay:10.37,2013-05-11 09:52:00,
2013-05-11 01:57:00,44.1,29.4,29.56,NW,315,0.0,0.0,56,0.00,CLR,SCT,0.00,WeatherDisplay:10.37,2013-05-11 09:57:00,
2013-05-11 02:02:00,44.1,29.4,29.56,NW,315,0.0,0.0,56,0.00,CLR,SCT,0.00,WeatherDisplay:10.37,2013-05-11 10:02:00,
2013-05-11 02:07:00,44.1,29.4,29.56,NW,315,0.0,0.0,56,0.00,CLR,SCT,0.00,WeatherDisplay:10.37,2013-05-11 10:07:00,
2013-05-11 02:12:00,43.9,30.0,29.56,NW,315,0.0,0.0,58,0.00,CLR,SCT,0.00,WeatherDisplay:10.37,2013-05-11 10:12:00,
2013-05-11 02:17:00,43.5,29.7,29.56,NW,315,0.0,0.0,58,0.00,CLR,SCT,0.00,WeatherDisplay:10.37,2013-05-11 10:17:00,
2013-05-11 02:22:00,43.3,29.5,29.56,NW,315,0.0,0.0,58,0.00,CLR,SCT,0.00,WeatherDisplay:10.37,2013-05-11 10:22:00,
2013-05-11 02:27:00,43.3,29.5,29.56,NW,315,0.0,0.0,58,0.00,CLR,SCT,0.00,WeatherDisplay:10.37,2013-05-11 10:27:00,
2013-05-11 02:32:00,43.3,30.0,29.56,NW,315,0.0,0.0,59,0.00,CLR,SCT,0.00,WeatherDisplay:10.37,2013-05-11 10:32:00,
2013-05-11 02:37:00,43.2,30.2,29.53,NW,315,0.0,0.0,60,0.00,CLR,SCT,0.00,WeatherDisplay:10.37,2013-05-11 10:37:00,
2013-05-11 02:42:00,43.2,30.6,29.53,NW,315,0.0,0.0,61,0.00,CLR,SCT,0.00,WeatherDisplay:10.37,2013-05-11 10:42:00,
2013-05-11 02:47:00,43.0,30.8,29.53,NW,315,0.0,0.0,62,0.00,CLR,SCT,0.00,WeatherDisplay:10.37,2013-05-11 10:47:00,
2013-05-11 02:52:00,42.8,31.1,29.53,NW,315,0.0,0.0,63,0.00,CLR,SCT,0.00,WeatherDisplay:10.37,2013-05-11 10:52:00,
2013-05-11 02:57:00,42.6,32.0,29.53,NW,315,0.0,0.0,66,0.00,CLR,SCT,0.00,WeatherDisplay:10.37,2013-05-11 10:57:00,
2013-05-11 03:02:00,42.4,32.6,29.53,NW,315,0.0,0.0,68,0.00,CLR,SCT,0.00,WeatherDisplay:10.37,2013-05-11 11:02:00,
2013-05-11 03:07:00,42.3,33.2,29.53,NW,315,0.0,0.0,70,0.00,CLR,SCT,0.00,WeatherDisplay:10.37,2013-05-11 11:07:00,
2013-05-11 03:12:00,42.1,33.7,29.53,NW,315,0.0,0.0,72,0.00,CLR,SCT,0.00,WeatherDisplay:10.37,2013-05-11 11:12:00,
2013-05-11 03:17:00,41.9,34.2,29.53,NW,315,0.0,0.0,74,0.00,CLR,SCT,0.00,WeatherDisplay:10.37,2013-05-11 11:17:00,
2013-05-11 03:22:00,41.7,34.4,29.53,NW,315,0.0,0.0,75,0.00,CLR,SCT,0.00,WeatherDisplay:10.37,2013-05-11 11:22:00,
2013-05-11 03:27:00,41.5,34.2,29.53,NW,315,0.0,0.0,75,0.00,CLR,SCT,0.00,WeatherDisplay:10.37,2013-05-11 11:27:00,
2013-05-11 03:32:00,41.5,34.5,29.53,NW,315,0.0,0.0,76,0.00,CLR,SCT,0.00,WeatherDisplay:10.37,2013-05-11 11:32:00,
2013-05-11 03:37:00,41.5,34.9,29.53,NW,315,0.0,0.0,77,0.00,CLR,SCT,0.00,WeatherDisplay:10.37,2013-05-11 11:37:00,
2013-05-11 03:42:00,41.4,34.7,29.53,NW,315,0.0,0.0,77,0.00,CLR,SCT,0.00,WeatherDisplay:10.37,2013-05-11 11:42:00,
2013-05-11 03:47:00,41.5,35.2,29.53,NW,315,0.0,0.0,78,0.00,CLR,SCT,0.00,WeatherDisplay:10.37,2013-05-11 11:47:00,
2013-05-11 03:52:00,41.5,35.2,29.53,NW,315,0.0,0.0,78,0.00,CLR,SCT,0.00,WeatherDisplay:10.37,2013-05-11 11:52:00,
2013-05-11 03:57:00,41.5,35.2,29.53,NW,315,0.0,0.0,78,0.00,CLR,SCT,0.00,WeatherDisplay:10.37,2013-05-11 11:57:00,
2013-05-11 04:02:00,41.5,35.8,29.53,NW,315,0.0,0.0,80,0.00,CLR,SCT,0.00,WeatherDisplay:10.37,2013-05-11 12:02:00,
2013-05-11 04:07:00,41.5,36.1,29.53,NW,315,0.0,0.0,81,0.00,CLR,SCT,0.00,WeatherDisplay:10.37,2013-05-11 12:07:00,
2013-05-11 04:12:00,41.5,36.5,29.53,NW,315,0.0,0.0,82,0.00,CLR,SCT,0.00,WeatherDisplay:10.37,2013-05-11 12:12:00,
2013-05-11 04:17:00,41.5,36.8,29.53,NW,315,0.0,0.0,83,0.00,CLR,SCT,0.00,WeatherDisplay:10.37,2013-05-11 12:17:00,
2013-05-11 04:22:00,41.7,37.2,29.50,NW,315,0.0,0.0,84,0.00,CLR,SCT,0.00,WeatherDisplay:10.37,2013-05-11 12:22:00,
2013-05-11 04:27:00,41.7,37.2,29.50,NW,315,0.0,0.0,84,0.00,CLR,SCT,0.00,WeatherDisplay:10.37,2013-05-11 12:27:00,
2013-05-11 04:32:00,42.1,37.9,29.50,NW,315,0.0,0.0,85,0.00,CLR,SCT,0.00,WeatherDisplay:10.37,2013-05-11 12:32:00,
2013-05-11 04:37:00,42.1,38.2,29.50,NW,315,0.0,0.0,86,0.00,CLR,SCT,0.00,WeatherDisplay:10.37,2013-05-11 12:37:00,
2013-05-11 04:42:00,42.3,38.4,29.50,NW,315,0.0,0.0,86,0.00,CLR,SCT,0.00,WeatherDisplay:10.37,2013-05-11 12:42:00,
2013-05-11 04:47:00,42.4,38.8,29.50,NW,315,0.0,0.0,87,0.00,CLR,SCT,0.00,WeatherDisplay:10.37,2013-05-11 12:47:00,
2013-05-11 04:52:00,42.6,39.0,29.50,NW,315,0.0,0.0,87,0.00,CLR,SCT,0.00,WeatherDisplay:10.37,2013-05-11 12:52:00,
2013-05-11 04:57:00,42.6,39.0,29.50,NW,315,0.0,0.0,87,0.00,CLR,SCT,0.00,WeatherDisplay:10.37,2013-05-11 12:57:00,
2013-05-11 05:02:00,42.8,39.2,29.50,NW,315,0.0,0.0,87,0.00,CLR,SCT,0.00,WeatherDisplay:10.37,2013-05-11 13:02:00,
2013-05-11 05:07:00,43.0,39.7,29.50,NW,315,0.0,0.0,88,0.00,CLR,SCT,0.00,WeatherDisplay:10.37,2013-05-11 13:07:00,
2013-05-11 05:12:00,43.2,40.1,29.50,NW,315,0.0,0.0,89,0.00,CLR,SCT,0.00,WeatherDisplay:10.37,2013-05-11 13:12:00,
2013-05-11 05:17:00,43.5,40.5,29.50,NW,315,0.0,0.0,89,0.04,RA,SCT,0.04,WeatherDisplay:10.37,2013-05-11 13:17:00,
2013-05-11 05:22:00,43.7,41.0,29.50,NNW,338,0.0,0.0,90,0.04,RA,SCT,0.04,WeatherDisplay:10.37,2013-05-11 13:22:00,
2013-05-11 05:28:00,43.9,41.1,29.50,North,0,0.0,0.0,90,0.04,,SCT,0.04,WeatherDisplay:10.37,2013-05-11 13:28:00,
2013-05-11 05:33:00,44.1,41.6,29.50,North,0,0.0,0.0,91,0.04,CLR,SCT,0.04,WeatherDisplay:10.37,2013-05-11 13:33:00,
2013-05-11 05:38:00,44.1,41.6,29.50,North,0,0.0,0.0,91,0.04,CLR,SCT,0.04,WeatherDisplay:10.37,2013-05-11 13:38:00,
2013-05-11 05:43:00,44.2,41.8,29.50,North,0,0.0,0.0,91,0.04,CLR,SCT,0.04,WeatherDisplay:10.37,2013-05-11 13:43:00,
2013-05-11 05:48:00,44.2,41.8,29.50,North,0,0.0,0.0,91,0.04,CLR,SCT,0.04,WeatherDisplay:10.37,2013-05-11 13:48:00,
2013-05-11 05:53:00,44.4,42.2,29.47,North,0,0.0,0.0,92,0.04,CLR,SCT,0.04,WeatherDisplay:10.37,2013-05-11 13:53:00,
2013-05-11 05:58:00,44.4,42.2,29.47,North,0,0.0,0.0,92,0.04,CLR,SCT,0.04,WeatherDisplay:10.37,2013-05-11 13:58:00,
2013-05-11 06:03:00,44.6,42.4,29.47,North,0,0.0,0.0,92,0.04,CLR,SCT,0.04,WeatherDisplay:10.37,2013-05-11 14:03:00,
2013-05-11 06:08:00,44.8,42.6,29.47,North,0,0.0,0.0,92,0.04,CLR,SCT,0.04,WeatherDisplay:10.37,2013-05-11 14:08:00,
2013-05-11 06:13:00,44.8,42.6,29.47,North,0,0.0,0.0,92,0.04,CLR,SCT,0.04,WeatherDisplay:10.37,2013-05-11 14:13:00,
2013-05-11 06:18:00,45.1,43.0,29.47,North,0,0.0,0.0,92,0.00,CLR,SCT,0.04,WeatherDisplay:10.37,2013-05-11 14:18:00,
2013-05-11 06:23:00,45.9,43.7,29.47,North,0,0.0,0.0,92,0.00,CLR,SCT,0.04,WeatherDisplay:10.37,2013-05-11 14:23:00,
2013-05-11 06:28:00,46.6,44.4,29.47,North,0,0.0,0.0,92,0.00,CLR,SCT,0.04,WeatherDisplay:10.37,2013-05-11 14:28:00,
2013-05-11 06:33:00,47.1,44.9,29.47,North,0,0.0,0.0,92,0.00,CLR,SCT,0.04,WeatherDisplay:10.37,2013-05-11 14:33:00,
2013-05-11 06:38:00,47.5,45.6,29.47,North,0,0.0,0.0,93,0.00,CLR,SCT,0.04,WeatherDisplay:10.37,2013-05-11 14:38:00,
2013-05-11 06:43:00,47.7,45.7,29.47,North,0,0.0,0.0,93,0.00,CLR,SCT,0.04,WeatherDisplay:10.37,2013-05-11 14:43:00,
2013-05-11 06:48:00,48.0,46.1,29.47,North,0,0.0,0.0,93,0.00,CLR,SCT,0.04,WeatherDisplay:10.37,2013-05-11 14:48:00,
2013-05-11 06:53:00,48.2,46.3,29.44,North,0,0.0,0.0,93,0.00,CLR,SCT,0.04,WeatherDisplay:10.37,2013-05-11 14:53:00,
2013-05-11 06:58:00,48.6,46.6,29.44,North,0,0.0,0.0,93,0.00,CLR,SCT,0.04,WeatherDisplay:10.37,2013-05-11 14:58:00,
2013-05-11 07:03:00,48.7,46.8,29.44,North,0,0.0,0.0,93,0.00,CLR,SCT,0.04,WeatherDisplay:10.37,2013-05-11 15:03:00,
2013-05-11 07:08:00,48.9,47.0,29.47,North,0,0.0,0.0,93,0.00,CLR,SCT,0.04,WeatherDisplay:10.37,2013-05-11 15:08:00,
2013-05-11 07:13:00,49.1,47.2,29.47,North,0,0.0,0.0,93,0.00,CLR,SCT,0.04,WeatherDisplay:10.37,2013-05-11 15:13:00,
2013-05-11 07:18:00,49.5,47.5,29.47,North,0,0.0,0.0,93,0.00,CLR,SCT,0.04,WeatherDisplay:10.37,2013-05-11 15:18:00,
2013-05-11 07:23:00,49.5,47.5,29.47,North,0,0.0,0.0,93,0.00,CLR,SCT,0.04,WeatherDisplay:10.37,2013-05-11 15:23:00,
2013-05-11 07:28:00,49.6,48.0,29.47,North,0,0.0,0.0,94,0.00,CLR,SCT,0.04,WeatherDisplay:10.37,2013-05-11 15:28:00,
2013-05-11 07:33:00,49.8,48.2,29.47,North,0,0.0,0.0,94,0.00,CLR,SCT,0.04,WeatherDisplay:10.37,2013-05-11 15:33:00,
2013-05-11 07:38:00,50.2,48.2,29.44,North,0,0.0,0.0,93,0.04,RA,SCT,0.08,WeatherDisplay:10.37,2013-05-11 15:38:00,
2013-05-11 07:43:00,50.2,48.2,29.44,North,0,0.0,0.0,93,0.04,RA,SCT,0.08,WeatherDisplay:10.37,2013-05-11 15:43:00,
2013-05-11 07:48:00,50.4,48.4,29.44,North,0,2.6,0.0,93,0.04,,SCT,0.08,WeatherDisplay:10.37,2013-05-11 15:48:00,
2013-05-11 07:53:00,50.5,48.6,29.44,North,0,3.5,3.5,93,0.04,CLR,SCT,0.08,WeatherDisplay:10.37,2013-05-11 15:53:00,
2013-05-11 07:58:00,50.7,48.8,29.44,North,0,3.6,0.0,93,0.04,CLR,SCT,0.08,WeatherDisplay:10.37,2013-05-11 15:58:00,
2013-05-11 08:03:00,51.1,49.1,29.44,North,0,0.0,0.0,93,0.04,CLR,SCT,0.08,WeatherDisplay:10.37,2013-05-11 16:03:00,
2013-05-11 08:08:00,51.3,49.6,29.44,North,0,0.0,0.0,94,0.04,CLR,SCT,0.08,WeatherDisplay:10.37,2013-05-11 16:08:00,
2013-05-11 08:13:00,51.4,49.8,29.44,North,0,0.0,0.0,94,0.04,CLR,SCT,0.08,WeatherDisplay:10.37,2013-05-11 16:13:00,
2013-05-11 08:18:00,51.6,49.9,29.44,North,0,0.0,0.0,94,0.04,CLR,SCT,0.08,WeatherDisplay:10.37,2013-05-11 16:18:00,
2013-05-11 08:23:00,52.0,50.0,29.44,North,0,0.0,0.0,93,0.04,CLR,SCT,0.08,WeatherDisplay:10.37,2013-05-11 16:23:00,
2013-05-11 08:28:00,52.0,50.0,29.44,North,0,4.6,4.6,93,0.04,CLR,SCT,0.08,WeatherDisplay:10.37,2013-05-11 16:28:00,
2013-05-11 08:33:00,52.0,50.0,29.44,North,0,3.5,0.0,93,0.04,CLR,SCT,0.08,WeatherDisplay:10.37,2013-05-11 16:33:00,
2013-05-11 08:38:00,52.2,50.2,29.44,North,0,2.3,0.0,93,0.00,CLR,SCT,0.08,WeatherDisplay:10.37,2013-05-11 16:38:00,
2013-05-11 08:43:00,52.2,50.2,29.44,North,0,4.6,4.6,93,0.00,CLR,SCT,0.08,WeatherDisplay:10.37,2013-05-11 16:43:00,
2013-05-11 08:48:00,52.2,50.2,29.44,North,0,3.5,3.5,93,0.00,CLR,SCT,0.08,WeatherDisplay:10.37,2013-05-11 16:48:00,
2013-05-11 08:53:00,52.3,50.4,29.44,North,0,4.0,4.0,93,0.00,CLR,SCT,0.08,WeatherDisplay:10.37,2013-05-11 16:53:00,
2013-05-11 08:58:00,52.3,50.4,29.44,North,0,3.5,3.5,93,0.00,CLR,SCT,0.08,WeatherDisplay:10.37,2013-05-11 16:58:00,
2013-05-11 09:03:00,52.3,50.4,29.44,North,0,2.3,0.0,93,0.00,CLR,SCT,0.08,WeatherDisplay:10.37,2013-05-11 17:03:00,
2013-05-11 09:08:00,52.7,50.7,29.44,North,0,3.5,3.5,93,0.00,CLR,SCT,0.08,WeatherDisplay:10.37,2013-05-11 17:08:00,
2013-05-11 09:13:00,52.7,50.7,29.44,NNW,338,3.5,0.0,93,0.00,CLR,SCT,0.08,WeatherDisplay:10.37,2013-05-11 17:13:00,
2013-05-11 09:18:00,52.7,50.7,29.44,NNW,338,3.5,3.5,93,0.00,CLR,SCT,0.08,WeatherDisplay:10.37,2013-05-11 17:18:00,
2013-05-11 09:23:00,52.9,51.2,29.44,NNW,338,2.6,0.0,94,0.00,CLR,SCT,0.08,WeatherDisplay:10.37,2013-05-11 17:23:00,
2013-05-11 09:28:00,52.9,50.9,29.44,NNW,338,2.6,0.0,93,0.00,CLR,SCT,0.08,WeatherDisplay:10.37,2013-05-11 17:28:00,
2013-05-11 09:33:00,52.9,51.2,29.41,NNW,338,2.6,2.6,94,0.00,CLR,SCT,0.08,WeatherDisplay:10.37,2013-05-11 17:33:00,
2013-05-11 09:38:00,52.9,51.2,29.41,NNW,338,3.5,0.0,94,0.00,CLR,SCT,0.08,WeatherDisplay:10.37,2013-05-11 17:38:00,
2013-05-11 09:43:00,53.2,51.6,29.41,NNW,338,0.0,0.0,94,0.00,CLR,SCT,0.08,WeatherDisplay:10.37,2013-05-11 17:43:00,
2013-05-11 09:48:00,53.2,51.6,29.41,NNW,338,0.0,0.0,94,0.00,CLR,SCT,0.08,WeatherDisplay:10.37,2013-05-11 17:48:00,
2013-05-11 09:53:00,53.6,51.6,29.41,NNW,338,0.0,0.0,93,0.00,CLR,SCT,0.08,WeatherDisplay:10.37,2013-05-11 17:53:00,
2013-05-11 09:58:00,54.1,52.2,29.41,NNW,338,0.0,0.0,93,0.00,CLR,SCT,0.08,WeatherDisplay:10.37,2013-05-11 17:58:00,
2013-05-11 10:03:00,53.8,51.8,29.41,NNW,338,3.6,3.6,93,0.00,CLR,SCT,0.08,WeatherDisplay:10.37,2013-05-11 18:03:00,
2013-05-11 10:08:00,53.4,51.7,29.41,NW,315,3.6,3.6,94,0.00,CLR,SCT,0.08,WeatherDisplay:10.37,2013-05-11 18:08:00,
2013-05-11 10:13:00,53.1,51.4,29.41,NW,315,4.6,4.6,94,0.00,CLR,SCT,0.08,WeatherDisplay:10.37,2013-05-11 18:13:00,
2013-05-11 10:18:00,52.7,51.0,29.41,NNW,338,4.6,4.6,94,0.00,CLR,SCT,0.08,WeatherDisplay:10.37,2013-05-11 18:18:00,
2013-05-11 10:23:00,52.2,50.5,29.41,NNW,338,4.6,4.6,94,0.00,CLR,SCT,0.08,WeatherDisplay:10.37,2013-05-11 18:23:00,
2013-05-11 10:28:00,51.8,50.1,29.41,NNW,338,2.3,0.0,94,0.00,CLR,SCT,0.08,WeatherDisplay:10.37,2013-05-11 18:28:00,
2013-05-11 10:33:00,51.3,49.6,29.41,NNW,338,2.6,0.0,94,0.00,CLR,SCT,0.08,WeatherDisplay:10.37,2013-05-11 18:33:00,
2013-05-11 10:38:00,50.7,49.1,29.41,NNW,338,3.5,0.0,94,0.00,CLR,SCT,0.08,WeatherDisplay:10.37,2013-05-11 18:38:00,
2013-05-11 10:43:00,50.2,48.5,29.41,NNW,338,0.0,0.0,94,0.00,CLR,SCT,0.08,WeatherDisplay:10.37,2013-05-11 18:43:00,
2013-05-11 10:48:00,50.0,48.3,29.41,NNW,338,3.5,3.5,94,0.00,CLR,SCT,0.08,WeatherDisplay:10.37,2013-05-11 18:48:00,
2013-05-11 10:53:00,49.3,47.9,29.41,NNW,338,2.3,0.0,95,0.00,CLR,SCT,0.08,WeatherDisplay:10.37,2013-05-11 18:53:00,
2013-05-11 10:58:00,49.1,47.7,29.41,NNW,338,0.0,0.0,95,0.00,CLR,SCT,0.08,WeatherDisplay:10.37,2013-05-11 18:58:00,
2013-05-11 11:03:00,49.3,47.9,29.38,NNW,338,0.0,0.0,95,0.00,CLR,SCT,0.08,WeatherDisplay:10.37,2013-05-11 19:03:00,
2013-05-11 11:08:00,49.6,48.3,29.38,NNW,338,0.0,0.0,95,0.00,CLR,SCT,0.08,WeatherDisplay:10.37,2013-05-11 19:08:00,
2013-05-11 11:13:00,48.9,47.3,29.38,NNW,338,2.3,0.0,94,0.00,CLR,SCT,0.08,WeatherDisplay:10.37,2013-05-11 19:13:00,
2013-05-11 11:18:00,48.4,46.7,29.38,NNW,338,0.0,0.0,94,0.00,CLR,SCT,0.08,WeatherDisplay:10.37,2013-05-11 19:18:00,
2013-05-11 11:23:00,48.2,46.6,29.38,NNW,338,0.0,0.0,94,0.00,CLR,SCT,0.08,WeatherDisplay:10.37,2013-05-11 19:23:00,
2013-05-11 11:28:00,47.7,46.0,29.38,NNW,338,0.0,0.0,94,0.00,CLR,SCT,0.08,WeatherDisplay:10.37,2013-05-11 19:28:00,
2013-05-11 11:33:00,48.0,46.4,29.38,NNW,338,0.0,0.0,94,0.00,CLR,SCT,0.08,WeatherDisplay:10.37,2013-05-11 19:33:00,
2013-05-11 11:38:00,48.2,46.3,29.38,NNW,338,0.0,0.0,93,0.00,CLR,SCT,0.08,WeatherDisplay:10.37,2013-05-11 19:38:00,
2013-05-11 11:43:00,48.6,46.6,29.38,NNW,338,0.0,0.0,93,0.00,CLR,SCT,0.08,WeatherDisplay:10.37,2013-05-11 19:43:00,
2013-05-11 11:48:00,48.4,46.2,29.38,NNW,338,0.0,0.0,92,0.00,CLR,SCT,0.08,WeatherDisplay:10.37,2013-05-11 19:48:00,
2013-05-11 11:53:00,48.6,46.3,29.38,NNW,338,2.3,0.0,92,0.00,CLR,SCT,0.08,WeatherDisplay:10.37,2013-05-11 19:53:00,
2013-05-11 11:58:00,48.4,46.2,29.38,NNW,338,3.5,3.5,92,0.00,CLR,SCT,0.08,WeatherDisplay:10.37,2013-05-11 19:58:00,
2013-05-11 12:03:00,47.8,45.6,29.38,NNW,338,3.5,3.5,92,0.00,CLR,SCT,0.08,WeatherDisplay:10.37,2013-05-11 20:03:00,
2013-05-11 12:08:00,48.2,45.7,29.38,NNW,338,4.0,4.0,91,0.00,CLR,SCT,0.08,WeatherDisplay:10.37,2013-05-11 20:08:00,
2013-05-11 12:13:00,48.0,45.8,29.38,NNW,338,4.6,4.6,92,0.00,CLR,SCT,0.08,WeatherDisplay:10.37,2013-05-11 20:13:00,
2013-05-11 12:19:00,48.0,45.5,29.38,NNW,338,3.5,3.5,91,0.00,CLR,SCT,0.08,WeatherDisplay:10.37,2013-05-11 20:19:00,
2013-05-11 12:24:00,48.6,46.1,29.38,NNW,338,0.0,0.0,91,0.00,CLR,SCT,0.08,WeatherDisplay:10.37,2013-05-11 20:24:00,
2013-05-11 12:29:00,48.9,46.4,29.38,NNW,338,3.5,0.0,91,0.00,CLR,SCT,0.08,WeatherDisplay:10.37,2013-05-11 20:29:00,
2013-05-11 12:34:00,49.5,46.9,29.38,NNW,338,4.0,0.0,91,0.00,CLR,SCT,0.08,WeatherDisplay:10.37,2013-05-11 20:34:00,
2013-05-11 12:39:00,49.3,46.8,29.38,NW,315,4.0,4.0,91,0.00,CLR,SCT,0.08,WeatherDisplay:10.37,2013-05-11 20:39:00,
2013-05-11 12:44:00,48.7,46.2,29.38,NNW,338,4.6,4.6,91,0.00,CLR,SCT,0.08,WeatherDisplay:10.37,2013-05-11 20:44:00,
2013-05-11 12:49:00,48.2,45.4,29.35,NNW,338,4.6,4.6,90,0.00,CLR,SCT,0.08,WeatherDisplay:10.37,2013-05-11 20:49:00,
2013-05-11 12:54:00,48.7,45.9,29.35,NNW,338,3.5,3.5,90,0.00,CLR,SCT,0.08,WeatherDisplay:10.37,2013-05-11 20:54:00,
2013-05-11 12:59:00,48.6,45.5,29.35,NNW,338,3.6,3.6,89,0.00,CLR,SCT,0.08,WeatherDisplay:10.37,2013-05-11 20:59:00,
2013-05-11 13:04:00,48.2,45.1,29.35,NNW,338,5.8,5.8,89,0.00,CLR,SCT,0.08,WeatherDisplay:10.37,2013-05-11 21:04:00,
2013-05-11 13:09:00,48.2,44.8,29.35,NNW,338,4.6,4.6,88,0.00,CLR,SCT,0.08,WeatherDisplay:10.37,2013-05-11 21:09:00,
2013-05-11 13:14:00,47.8,44.5,29.35,NW,315,3.6,3.6,88,0.00,CLR,SCT,0.08,WeatherDisplay:10.37,2013-05-11 21:14:00,
2013-05-11 13:19:00,48.4,45.0,29.35,NNW,338,3.5,3.5,88,0.00,CLR,SCT,0.08,WeatherDisplay:10.37,2013-05-11 21:19:00,
2013-05-11 13:24:00,48.7,45.0,29.35,NNW,338,5.8,5.8,87,0.00,CLR,SCT,0.08,WeatherDisplay:10.37,2013-05-11 21:24:00,
2013-05-11 13:29:00,48.4,44.4,29.35,NW,315,4.9,4.9,86,0.00,CLR,SCT,0.08,WeatherDisplay:10.37,2013-05-11 21:29:00,
2013-05-11 13:34:00,47.7,43.4,29.35,NW,315,5.8,5.8,85,0.00,CLR,SCT,0.08,WeatherDisplay:10.37,2013-05-11 21:34:00,
2013-05-11 13:39:00,48.0,43.4,29.35,NNW,338,3.5,3.6,84,0.00,CLR,SCT,0.08,WeatherDisplay:10.37,2013-05-11 21:39:00,
2013-05-11 13:44:00,48.0,43.1,29.35,NW,315,4.6,0.0,83,0.00,CLR,SCT,0.08,WeatherDisplay:10.37,2013-05-11 21:44:00,
2013-05-11 13:49:00,47.8,42.3,29.35,NNW,338,4.6,4.6,81,0.00,CLR,SCT,0.08,WeatherDisplay:10.37,2013-05-11 21:49:00,
2013-05-11 13:54:00,47.5,41.3,29.35,NNW,338,5.8,5.8,79,0.00,CLR,SCT,0.08,WeatherDisplay:10.37,2013-05-11 21:54:00,
2013-05-11 13:59:00,47.8,40.6,29.35,NNW,338,4.6,4.6,76,0.00,CLR,SCT,0.08,WeatherDisplay:10.37,2013-05-11 21:59:00,
2013-05-11 14:04:00,48.2,40.6,29.35,NW,315,3.5,3.5,75,0.00,CLR,SCT,0.08,WeatherDisplay:10.37,2013-05-11 22:04:00,
2013-05-11 14:09:00,48.0,40.1,29.35,NNW,338,5.8,5.8,74,0.00,CLR,SCT,0.08,WeatherDisplay:10.37,2013-05-11 22:09:00,
2013-05-11 14:14:00,48.0,39.8,29.35,NNW,338,6.9,6.9,73,0.00,CLR,SCT,0.08,WeatherDisplay:10.37,2013-05-11 22:14:00,
2013-05-11 14:19:00,48.7,40.8,29.32,NNW,338,3.5,3.5,74,0.00,CLR,SCT,0.08,WeatherDisplay:10.37,2013-05-11 22:19:00,
2013-05-11 14:24:00,48.9,39.9,29.32,NNW,338,5.9,5.9,71,0.00,CLR,SCT,0.08,WeatherDisplay:10.37,2013-05-11 22:24:00,
2013-05-11 14:29:00,48.9,39.6,29.32,NW,315,5.9,5.9,70,0.00,CLR,SCT,0.08,WeatherDisplay:10.37,2013-05-11 22:29:00,
2013-05-11 14:34:00,49.5,39.7,29.32,NNW,338,5.8,5.8,69,0.00,CLR,SCT,0.08,WeatherDisplay:10.37,2013-05-11 22:34:00,
2013-05-11 14:39:00,50.0,39.5,29.32,NNW,338,6.9,6.9,67,0.00,CLR,SCT,0.08,WeatherDisplay:10.37,2013-05-11 22:39:00,
2013-05-11 14:44:00,50.9,40.3,29.32,NNW,338,5.4,5.4,67,0.00,CLR,SCT,0.08,WeatherDisplay:10.37,2013-05-11 22:44:00,
2013-05-11 14:49:00,51.6,40.6,29.32,NNW,338,4.6,4.6,66,0.00,CLR,SCT,0.08,WeatherDisplay:10.37,2013-05-11 22:49:00,
2013-05-11 14:54:00,50.9,38.3,29.32,NW,315,5.9,5.9,62,0.00,CLR,SCT,0.08,WeatherDisplay:10.37,2013-05-11 22:54:00,
2013-05-11 14:59:00,50.9,38.7,29.32,NNW,338,5.8,5.8,63,0.00,CLR,SCT,0.08,WeatherDisplay:10.37,2013-05-11 22:59:00,
2013-05-11 15:04:00,51.6,40.2,29.32,NW,315,8.1,8.1,65,0.00,CLR,SCT,0.08,WeatherDisplay:10.37,2013-05-11 23:04:00,
2013-05-11 15:09:00,51.3,39.5,29.32,NNW,338,4.6,4.6,64,0.00,CLR,SCT,0.08,WeatherDisplay:10.37,2013-05-11 23:09:00,
2013-05-11 15:14:00,50.7,38.6,29.32,WNW,292,8.1,8.1,63,0.00,CLR,SCT,0.08,WeatherDisplay:10.37,2013-05-11 23:14:00,
2013-05-11 15:19:00,51.1,39.3,29.32,NNW,338,4.6,4.6,64,0.00,CLR,SCT,0.08,WeatherDisplay:10.37,2013-05-11 23:19:00,
2013-05-11 15:24:00,51.4,39.7,29.32,NNW,338,4.6,4.6,64,0.00,CLR,SCT,0.08,WeatherDisplay:10.37,2013-05-11 23:24:00,
2013-05-11 15:29:00,50.7,38.2,29.32,NNW,338,5.8,5.8,62,0.00,CLR,SCT,0.08,WeatherDisplay:10.37,2013-05-11 23:29:00,
2013-05-11 15:34:00,51.3,39.1,29.32,North,0,5.8,5.8,63,0.00,CLR,SCT,0.08,WeatherDisplay:10.37,2013-05-11 23:34:00,
2013-05-11 15:39:00,51.3,39.1,29.32,North,0,5.4,5.4,63,0.00,CLR,SCT,0.08,WeatherDisplay:10.37,2013-05-11 23:39:00,
2013-05-11 15:44:00,51.1,38.9,29.32,NNW,338,5.8,5.8,63,0.00,CLR,SCT,0.08,WeatherDisplay:10.37,2013-05-11 23:44:00,
2013-05-11 15:49:00,51.4,39.3,29.29,NNW,338,4.6,4.6,63,0.00,CLR,SCT,0.08,WeatherDisplay:10.37,2013-05-11 23:49:00,
2013-05-11 15:54:00,51.3,39.5,29.29,NNW,338,4.6,0.0,64,0.00,CLR,SCT,0.08,WeatherDisplay:10.37,2013-05-11 23:54:00,
2013-05-11 15:59:00,50.7,38.6,29.29,NNW,338,4.6,4.6,63,0.00,CLR,SCT,0.08,WeatherDisplay:10.37,2013-05-11 23:59:00,
2013-05-11 16:04:00,50.9,39.9,29.29,NNW,338,3.6,3.6,66,0.00,CLR,SCT,0.08,WeatherDisplay:10.37,2013-05-12 00:04:00,
2013-05-11 16:09:00,50.4,39.4,29.29,NW,315,7.1,7.1,66,0.00,CLR,SCT,0.08,WeatherDisplay:10.37,2013-05-12 00:09:00,
2013-05-11 16:14:00,50.2,40.4,29.29,NW,315,4.6,4.6,69,0.00,CLR,SCT,0.08,WeatherDisplay:10.37,2013-05-12 00:14:00,
2013-05-11 16:19:00,49.5,40.4,29.29,NNW,338,4.6,4.6,71,0.00,CLR,SCT,0.08,WeatherDisplay:10.37,2013-05-12 00:19:00,
2013-05-11 16:24:00,49.3,41.0,29.29,NNW,338,3.6,3.6,73,0.00,CLR,SCT,0.08,WeatherDisplay:10.37,2013-05-12 00:24:00,
2013-05-11 16:29:00,48.9,41.0,29.29,NW,315,5.8,5.8,74,0.00,CLR,SCT,0.08,WeatherDisplay:10.37,2013-05-12 00:29:00,
2013-05-11 16:34:00,48.7,41.2,29.29,NW,315,5.8,5.8,75,0.00,CLR,SCT,0.08,WeatherDisplay:10.37,2013-05-12 00:34:00,
2013-05-11 16:39:00,49.1,41.5,29.29,NW,315,4.6,4.6,75,0.00,CLR,SCT,0.08,WeatherDisplay:10.37,2013-05-12 00:39:00,
2013-05-11 16:44:00,49.3,41.7,29.29,NNW,338,4.6,4.6,75,0.00,CLR,SCT,0.08,WeatherDisplay:10.37,2013-05-12 00:44:00,
2013-05-11 16:49:00,49.5,42.2,29.29,NNW,338,2.6,2.6,76,0.00,CLR,SCT,0.08,WeatherDisplay:10.37,2013-05-12 00:49:00,
2013-05-11 16:54:00,49.5,41.9,29.29,NNW,338,3.5,0.0,75,0.00,CLR,SCT,0.08,WeatherDisplay:10.37,2013-05-12 00:54:00,
2013-05-11 16:59:00,49.3,41.3,29.29,NW,315,5.8,5.8,74,0.00,CLR,SCT,0.08,WeatherDisplay:10.37,2013-05-12 00:59:00,
2013-05-11 17:04:00,49.1,41.2,29.29,NNW,338,4.6,4.6,74,0.00,CLR,SCT,0.08,WeatherDisplay:10.37,2013-05-12 01:04:00,
2013-05-11 17:09:00,48.9,40.6,29.29,NW,315,4.6,4.6,73,0.00,CLR,SCT,0.08,WeatherDisplay:10.37,2013-05-12 01:09:00,
2013-05-11 17:14:00,48.6,39.9,29.29,North,0,8.1,8.1,72,0.00,CLR,SCT,0.08,WeatherDisplay:10.37,2013-05-12 01:14:00,
2013-05-11 17:19:00,48.6,39.2,29.29,NW,315,4.6,4.6,70,0.00,CLR,SCT,0.08,WeatherDisplay:10.37,2013-05-12 01:19:00,
2013-05-11 17:24:00,48.9,39.9,29.29,NNW,338,4.0,4.0,71,0.00,CLR,SCT,0.08,WeatherDisplay:10.37,2013-05-12 01:24:00,
2013-05-11 17:29:00,49.1,39.4,29.29,NNW,338,4.6,4.6,69,0.00,CLR,SCT,0.08,WeatherDisplay:10.37,2013-05-12 01:29:00,
2013-05-11 17:34:00,49.3,39.5,29.26,NW,315,5.9,5.9,69,0.00,CLR,SCT,0.08,WeatherDisplay:10.37,2013-05-12 01:34:00,
2013-05-11 17:39:00,49.3,39.2,29.26,NNW,338,5.8,5.8,68,0.00,CLR,SCT,0.08,WeatherDisplay:10.37,2013-05-12 01:39:00,
2013-05-11 17:44:00,49.5,39.3,29.26,NW,315,3.5,3.5,68,0.00,CLR,SCT,0.08,WeatherDisplay:10.37,2013-05-12 01:44:00,
2013-05-11 17:49:00,49.6,39.5,29.26,NNW,338,4.6,4.6,68,0.00,CLR,SCT,0.08,WeatherDisplay:10.37,2013-05-12 01:49:00,
2013-05-11 17:54:00,49.8,38.9,29.26,NNW,338,4.6,4.6,66,0.00,CLR,SCT,0.08,WeatherDisplay:10.37,2013-05-12 01:54:00,
2013-05-11 17:59:00,49.8,38.1,29.26,NNW,338,5.8,5.8,64,0.00,CLR,SCT,0.08,WeatherDisplay:10.37,2013-05-12 01:59:00,
2013-05-11 18:04:00,49.6,38.0,29.26,NW,315,5.4,5.4,64,0.00,CLR,SCT,0.08,WeatherDisplay:10.37,2013-05-12 02:04:00,
2013-05-11 18:09:00,49.8,38.5,29.26,NNW,338,4.0,4.0,65,0.00,CLR,SCT,0.08,WeatherDisplay:10.37,2013-05-12 02:09:00,
2013-05-11 18:14:00,49.6,38.3,29.26,NNW,338,4.6,4.6,65,0.00,CLR,SCT,0.08,WeatherDisplay:10.37,2013-05-12 02:14:00,
2013-05-11 18:19:00,49.8,38.9,29.26,NNW,338,5.8,5.8,66,0.00,CLR,SCT,0.08,WeatherDisplay:10.37,2013-05-12 02:19:00,
2013-05-11 18:24:00,50.0,39.1,29.26,NNW,338,4.6,4.6,66,0.00,CLR,SCT,0.08,WeatherDisplay:10.37,2013-05-12 02:24:00,
2013-05-11 18:30:00,50.2,39.6,29.26,NNW,338,4.0,4.0,67,0.00,CLR,SCT,0.08,WeatherDisplay:10.37,2013-05-12 02:30:00,
2013-05-11 18:35:00,50.2,39.3,29.26,NNW,338,3.5,3.5,66,0.00,CLR,SCT,0.08,WeatherDisplay:10.37,2013-05-12 02:35:00,
2013-05-11 18:40:00,50.5,40.0,29.26,NNW,338,4.6,4.6,67,0.00,CLR,SCT,0.08,WeatherDisplay:10.37,2013-05-12 02:40:00,
2013-05-11 18:45:00,50.7,39.8,29.26,NNW,338,0.0,0.0,66,0.00,CLR,SCT,0.08,WeatherDisplay:10.37,2013-05-12 02:45:00,
2013-05-11 18:50:00,50.7,39.4,29.26,NNW,338,3.6,0.0,65,0.00,CLR,SCT,0.08,WeatherDisplay:10.37,2013-05-12 02:50:00,
2013-05-11 18:55:00,50.9,39.5,29.26,NNW,338,3.5,3.5,65,0.00,CLR,SCT,0.08,WeatherDisplay:10.37,2013-05-12 02:55:00,
2013-05-11 19:00:00,51.1,39.3,29.26,NNW,338,4.6,4.6,64,0.00,CLR,SCT,0.08,WeatherDisplay:10.37,2013-05-12 03:00:00,
2013-05-11 19:05:00,51.1,38.9,29.26,NNW,338,4.6,4.6,63,0.00,CLR,SCT,0.08,WeatherDisplay:10.37,2013-05-12 03:05:00,
2013-05-11 19:10:00,50.9,39.5,29.26,NNW,338,3.1,0.0,65,0.00,CLR,SCT,0.08,WeatherDisplay:10.37,2013-05-12 03:10:00,
2013-05-11 19:15:00,50.7,39.8,29.26,NNW,338,3.5,0.0,66,0.00,CLR,SCT,0.08,WeatherDisplay:10.37,2013-05-12 03:15:00,
2013-05-11 19:20:00,50.4,40.2,29.26,NW,315,3.1,0.0,68,0.00,CLR,SCT,0.08,WeatherDisplay:10.37,2013-05-12 03:20:00,
2013-05-11 19:25:00,50.2,40.4,29.26,NW,315,2.3,0.0,69,0.00,CLR,SCT,0.08,WeatherDisplay:10.37,2013-05-12 03:25:00,
2013-05-11 19:30:00,50.2,40.0,29.26,NNW,338,2.3,0.0,68,0.00,CLR,SCT,0.08,WeatherDisplay:10.37,2013-05-12 03:30:00,
2013-05-11 19:35:00,50.2,39.3,29.24,North,0,4.6,4.6,66,0.00,CLR,SCT,0.08,WeatherDisplay:10.37,2013-05-12 03:35:00,
2013-05-11 19:40:00,50.2,38.9,29.24,North,0,4.6,0.0,65,0.00,CLR,SCT,0.08,WeatherDisplay:10.37,2013-05-12 03:40:00,
2013-05-11 19:45:00,50.2,38.9,29.24,North,0,0.0,0.0,65,0.00,CLR,SCT,0.08,WeatherDisplay:10.37,2013-05-12 03:45:00,
2013-05-11 19:50:00,50.2,39.3,29.26,North,0,0.0,0.0,66,0.00,CLR,SCT,0.08,WeatherDisplay:10.37,2013-05-12 03:50:00,
2013-05-11 19:55:00,50.0,40.2,29.26,North,0,0.0,0.0,69,0.00,CLR,SCT,0.08,WeatherDisplay:10.37,2013-05-12 03:55:00,
2013-05-11 20:00:00,49.8,40.4,29.26,North,0,2.3,0.0,70,0.00,CLR,SCT,0.08,WeatherDisplay:10.37,2013-05-12 04:00:00,
2013-05-11 20:01:00,49.8,40.4,29.26,North,0,2.3,0.0,70,0.00,CLR,SCT,0.08,WeatherDisplay:10.37,2013-05-12 04:01:00,
2013-05-11 20:06:00,49.8,40.4,29.24,North,0,0.0,0.0,70,0.00,CLR,SCT,0.08,WeatherDisplay:10.37,2013-05-12 04:06:00,
2013-05-11 20:11:00,49.8,40.4,29.24,North,0,0.0,0.0,70,0.00,CLR,SCT,0.08,WeatherDisplay:10.37,2013-05-12 04:11:00,
2013-05-11 20:16:00,49.8,40.1,29.24,North,0,0.0,0.0,69,0.00,CLR,SCT,0.08,WeatherDisplay:10.37,2013-05-12 04:16:00,
2013-05-11 20:21:00,49.8,40.1,29.24,North,0,0.0,0.0,69,0.00,CLR,SCT,0.08,WeatherDisplay:10.37,2013-05-12 04:21:00,
2013-05-11 20:26:00,49.8,40.8,29.24,North,0,0.0,0.0,71,0.00,CLR,SCT,0.08,WeatherDisplay:10.37,2013-05-12 04:26:00,
2013-05-11 20:31:00,49.8,40.4,29.24,North,0,0.0,0.0,70,0.00,CLR,SCT,0.08,WeatherDisplay:10.37,2013-05-12 04:31:00,
2013-05-11 20:36:00,49.8,40.4,29.24,North,0,0.0,0.0,70,0.00,CLR,SCT,0.08,WeatherDisplay:10.37,2013-05-12 04:36:00,
2013-05-11 20:41:00,50.0,41.0,29.24,North,0,0.0,0.0,71,0.00,CLR,SCT,0.08,WeatherDisplay:10.37,2013-05-12 04:41:00,
2013-05-11 20:46:00,50.0,40.6,29.24,North,0,0.0,0.0,70,0.00,CLR,SCT,0.08,WeatherDisplay:10.37,2013-05-12 04:46:00,
2013-05-11 20:51:00,50.0,40.2,29.24,North,0,2.3,0.0,69,0.00,CLR,SCT,0.08,WeatherDisplay:10.37,2013-05-12 04:51:00,
2013-05-11 20:56:00,50.0,40.6,29.24,North,0,0.0,0.0,70,0.00,CLR,SCT,0.08,WeatherDisplay:10.37,2013-05-12 04:56:00,
2013-05-11 21:01:00,49.8,40.8,29.24,North,0,0.0,0.0,71,0.00,CLR,SCT,0.08,WeatherDisplay:10.37,2013-05-12 05:01:00,
2013-05-11 21:06:00,49.6,41.0,29.24,North,0,0.0,0.0,72,0.00,CLR,SCT,0.08,WeatherDisplay:10.37,2013-05-12 05:06:00,
2013-05-11 21:11:00,49.5,40.8,29.24,North,0,0.0,0.0,72,0.00,CLR,SCT,0.08,WeatherDisplay:10.37,2013-05-12 05:11:00,
2013-05-11 21:16:00,49.5,41.2,29.24,North,0,0.0,0.0,73,0.00,CLR,SCT,0.08,WeatherDisplay:10.37,2013-05-12 05:16:00,
2013-05-11 21:21:00,49.3,40.6,29.24,North,0,0.0,0.0,72,0.00,CLR,SCT,0.08,WeatherDisplay:10.37,2013-05-12 05:21:00,
2013-05-11 21:26:00,49.5,39.7,29.24,ENE,68,5.8,5.8,69,0.00,CLR,SCT,0.08,WeatherDisplay:10.37,2013-05-12 05:26:00,
2013-05-11 21:31:00,49.6,38.7,29.24,ENE,68,4.6,4.6,66,0.00,CLR,SCT,0.08,WeatherDisplay:10.37,2013-05-12 05:31:00,
2013-05-11 21:36:00,49.5,39.0,29.26,ENE,68,4.6,4.6,67,0.00,CLR,SCT,0.08,WeatherDisplay:10.37,2013-05-12 05:36:00,
2013-05-11 21:41:00,49.5,39.0,29.26,ENE,68,4.0,4.0,67,0.00,CLR,SCT,0.08,WeatherDisplay:10.37,2013-05-12 05:41:00,
2013-05-11 21:46:00,49.3,38.8,29.26,ENE,68,4.6,4.6,67,0.00,CLR,SCT,0.08,WeatherDisplay:10.37,2013-05-12 05:46:00,
2013-05-11 21:51:00,49.3,38.8,29.26,ENE,68,4.6,4.6,67,0.00,CLR,SCT,0.08,WeatherDisplay:10.37,2013-05-12 05:51:00,
2013-05-11 21:56:00,49.1,39.0,29.26,NE,45,4.6,4.6,68,0.00,CLR,SCT,0.08,WeatherDisplay:10.37,2013-05-12 05:56:00,
2013-05-11 22:01:00,48.7,38.6,29.26,East,90,2.3,2.6,68,0.00,CLR,SCT,0.08,WeatherDisplay:10.37,2013-05-12 06:01:00,
2013-05-11 22:06:00,48.4,37.9,29.26,ENE,68,3.5,0.0,67,0.00,CLR,SCT,0.08,WeatherDisplay:10.37,2013-05-12 06:06:00,
2013-05-11 22:11:00,48.6,38.1,29.26,ENE,68,4.6,4.6,67,0.00,CLR,SCT,0.08,WeatherDisplay:10.37,2013-05-12 06:11:00,
2013-05-11 22:16:00,48.7,38.3,29.26,ENE,68,5.8,5.8,67,0.00,CLR,SCT,0.08,WeatherDisplay:10.37,2013-05-12 06:16:00,
2013-05-11 22:21:00,48.7,38.3,29.24,ENE,68,4.6,4.6,67,0.00,CLR,SCT,0.08,WeatherDisplay:10.37,2013-05-12 06:21:00,
2013-05-11 22:26:00,48.7,38.3,29.24,ENE,68,3.5,0.0,67,0.00,CLR,SCT,0.08,WeatherDisplay:10.37,2013-05-12 06:26:00,
2013-05-11 22:31:00,48.7,38.3,29.24,ENE,68,3.5,3.5,67,0.00,CLR,SCT,0.08,WeatherDisplay:10.37,2013-05-12 06:31:00,
2013-05-11 22:36:00,48.6,38.5,29.24,ENE,68,4.6,0.0,68,0.00,CLR,SCT,0.08,WeatherDisplay:10.37,2013-05-12 06:36:00,
2013-05-11 22:41:00,48.7,38.3,29.24,ENE,68,4.6,4.6,67,0.00,CLR,SCT,0.08,WeatherDisplay:10.37,2013-05-12 06:41:00,
2013-05-11 22:46:00,48.6,38.1,29.24,ENE,68,3.6,0.0,67,0.00,CLR,SCT,0.08,WeatherDisplay:10.37,2013-05-12 06:46:00,
2013-05-11 22:51:00,47.7,39.1,29.24,ENE,68,2.6,2.6,72,0.00,CLR,SCT,0.08,WeatherDisplay:10.37,2013-05-12 06:51:00,
2013-05-11 22:56:00,47.3,39.4,29.24,ENE,68,2.6,0.0,74,0.00,CLR,SCT,0.08,WeatherDisplay:10.37,2013-05-12 06:56:00,
2013-05-11 23:01:00,46.9,39.8,29.24,ENE,68,2.3,0.0,76,0.00,CLR,SCT,0.08,WeatherDisplay:10.37,2013-05-12 07:01:00,
2013-05-11 23:06:00,46.8,39.9,29.24,WNW,292,3.5,3.5,77,0.00,CLR,SCT,0.08,WeatherDisplay:10.37,2013-05-12 07:06:00,
2013-05-11 23:11:00,46.4,40.2,29.24,NNW,338,3.5,3.5,79,0.00,CLR,SCT,0.08,WeatherDisplay:10.37,2013-05-12 07:11:00,
2013-05-11 23:16:00,46.2,40.4,29.24,NNW,338,0.0,0.0,80,0.00,CLR,SCT,0.08,WeatherDisplay:10.37,2013-05-12 07:16:00,
2013-05-11 23:21:00,46.0,40.5,29.24,NNW,338,2.3,0.0,81,0.00,CLR,SCT,0.08,WeatherDisplay:10.37,2013-05-12 07:21:00,
2013-05-11 23:26:00,45.9,40.4,29.24,NNW,338,0.0,0.0,81,0.00,CLR,SCT,0.08,WeatherDisplay:10.37,2013-05-12 07:26:00,
2013-05-11 23:31:00,45.7,40.5,29.24,NNW,338,0.0,0.0,82,0.00,CLR,SCT,0.08,WeatherDisplay:10.37,2013-05-12 07:31:00,
2013-05-11 23:36:00,45.9,41.0,29.24,NNW,338,0.0,0.0,83,0.00,CLR,SCT,0.08,WeatherDisplay:10.37,2013-05-12 07:36:00,
2013-05-11 23:41:00,45.7,40.8,29.24,NNW,338,0.0,0.0,83,0.00,CLR,SCT,0.08,WeatherDisplay:10.37,2013-05-12 07:41:00,
2013-05-11 23:46:00,45.9,41.0,29.24,NNW,338,0.0,0.0,83,0.00,CLR,SCT,0.08,WeatherDisplay:10.37,2013-05-12 07:46:00,
2013-05-11 23:51:00,45.9,41.0,29.24,NNW,338,0.0,0.0,83,0.00,CLR,SCT,0.08,WeatherDisplay:10.37,2013-05-12 07:51:00,
2013-05-11 23:56:00,45.7,40.8,29.24,NNW,338,0.0,0.0,83,0.00,CLR,SCT,0.08,WeatherDisplay:10.37,2013-05-12 07:56:00,